Location: *
(38.2661°S, 156.7650°W)
Time: 08:35:47
(UTC+00:00)

Daily predictions for brighter satellites

Satellite Brightness Start Highest point End
(mag) Time Altitude Azimuth Time Altitude Azimuth Time Altitude Azimuth
Cosmos 1455 Rocket 3.4 12:04:11 52° ENE 12:04:35 54° E 12:08:52 10° SSE
USA 276 3.9 12:07:54 32° SE 12:07:54 32° SE 12:09:45 10° SE
Cosmos 1461 3.6 12:05:31 10° SSW 12:09:44 54° ESE 12:11:45 29° ENE
Cosmos 2322 3.6 12:05:06 10° SSW 12:10:53 77° WNW 12:12:26 50° N
Cosmos 2227 Rocket 3.3 12:14:36 26° NE 12:16:49 35° ENE 12:21:57 10° SE
Cosmos 2219 Rocket 2.7 12:14:28 10° SW 12:19:41 40° WNW 12:19:41 40° WNW
Cosmos 2360 Rocket 4.0 12:17:08 10° WSW 12:19:37 17° W 12:19:37 17° W
Cosmos 1242 Rocket 4.3 12:19:14 10° SSW 12:20:37 20° SW 12:20:37 20° SW
IRIDIUM 106 4.3 12:17:23 10° S 12:22:43 85° E 12:24:26 44° N
ATLAS 5 CENTAUR R/B 1.8 12:18:04 10° SSW 12:23:37 81° ESE 12:25:49 31° NE
Thor Agena Rocket 4.0 12:20:53 23° NE 12:24:04 59° ESE 12:29:15 10° S
Resurs 1-4 Rocket 3.3 12:27:37 25° W 12:27:37 25° W 12:31:36 10° SW
Cosmos 1346 Rocket 3.7 12:27:44 35° WSW 12:27:44 35° WSW 12:31:04 10° S
ALOS 2.2 12:30:17 42° NNE 12:31:53 86° ESE 12:36:37 10° SSW
Cosmos 489 Rocket 4.5 12:30:25 41° NNW 12:32:51 80° WSW 12:39:18 10° SSE
NOSS 0 Rocket 3.9 12:29:35 10° SSW 12:35:52 85° ESE 12:41:44 12° NNE
Cosmos 1544 Rocket 4.0 12:41:25 33° NNE 12:43:09 57° E 12:47:30 10° SSE
FENGYUN 3A 4.0 12:43:32 39° NW 12:44:49 46° W 12:50:03 10° SSW
Cosmos 1725 Rocket 4.5 12:39:27 10° SSW 12:45:25 43° W 12:47:29 33° NW
Cosmos 1048 Rocket 4.0 12:40:44 10° SSW 12:46:08 89° E 12:49:51 20° NNE
MOZ.5/SAFIR/RUBIN 5/SL-8 3.7 12:42:00 10° SSE 12:46:43 81° ENE 12:48:29 38° N
IRS-1D 4.0 12:43:38 12° NNE 12:48:35 63° ESE 12:53:56 10° S
BREEZE-M DEB (TANK) 4.0 12:48:09 29° NW 12:51:56 58° NNE 12:55:38 10° ESE
Cosmos 1626 Rocket 4.5 12:48:50 10° S 12:53:12 48° E 12:57:04 12° NNE
Cosmos 2228 4.1 12:52:11 19° NNE 12:54:48 41° E 12:58:51 10° SSE
Cosmos 2298 Rocket 4.1 12:53:14 31° N 12:55:51 76° ENE 13:01:13 10° SSE
Cosmos 2084 Rocket 4.0 12:57:09 10° SSW 13:01:56 69° SE 13:06:37 10° NE
Lacrosse 5 3.9 13:00:18 12° NNE 13:03:25 19° ENE 13:06:59 10° ESE
Cosmos 2297 Rocket 2.6 13:01:03 29° WNW 13:03:39 50° WSW 13:09:11 10° SSE
PAYLOAD A 4.2 12:59:07 10° NNE 13:03:46 66° ESE 13:08:32 10° S
Cosmos 2346 Rocket 4.4 13:01:37 25° NNW 13:05:27 80° W 13:11:39 10° S
Cosmos 1980 3.6 13:06:49 10° SSW 13:12:31 75° WNW 13:18:08 10° NNE
Cosmos 1125 Rocket 4.0 13:11:45 27° NW 13:14:14 46° WSW 13:19:20 10° S
Cosmos 1891 Rocket 4.5 13:12:28 10° S 13:18:50 83° W 13:25:00 10° N
YAOGAN 6 2.7 13:16:25 14° NNE 13:19:15 65° ESE 13:22:40 10° S
Cosmos 724 4.3 13:16:02 23° NNW 13:19:44 80° ENE 13:25:37 10° SSE
Cosmos 2219 3.4 13:15:45 20° NNW 13:19:46 75° ENE 13:25:33 10° SSE
ISS -2.4 13:17:01 10° SW 13:20:17 43° SE 13:23:33 10° ENE
METEOR-M 4.2 13:18:01 16° N 13:22:20 61° W 13:27:42 10° SSW
Envisat 2.9 13:17:42 11° N 13:22:37 76° WNW 13:27:47 10° SSW
ADEOS II 4.0 13:24:48 12° W 13:24:58 12° W 13:26:46 10° WSW
CZ-2C R/B 4.2 13:23:50 22° NW 13:26:18 30° W 13:31:26 10° SW
COSMOS 2428 3.9 13:22:51 10° SW 13:27:01 21° W 13:28:14 20° WNW
COBE Rocket 4.0 13:25:32 20° NNW 13:28:33 49° W 13:33:12 10° SSW
Cosmos 2082 4.3 13:25:31 13° N 13:30:34 56° ENE 13:36:12 10° SSE
CZ-2C R/B 2.5 13:27:18 13° N 13:31:50 58° W 13:36:46 10° SSW
Cosmos 1606 3.0 13:32:31 12° N 13:35:48 61° E 13:39:27 10° SSE
Cosmos 2237 Rocket 2.4 13:30:46 10° SSW 13:36:18 49° WNW 13:41:46 10° N
USA 215 3.5 13:35:23 10° NNE 13:41:33 43° NW 13:47:49 10° WSW
Cosmos 2263 Rocket 2.7 13:36:16 11° N 13:41:45 61° ENE 13:47:24 10° SSE
Meteor 2-21 4.5 13:41:35 10° N 13:47:42 88° W 13:53:51 10° S
BREEZE M DEB (TANK) 3.9 13:44:53 10° SW 13:47:43 58° SE 13:55:30 10° ENE
USA 307 3.5 13:51:26 10° SSW 13:53:22 28° SE 13:55:16 10° ENE
Cosmos 614 Rocket 4.5 13:48:39 10° SSW 13:53:48 64° ESE 13:58:53 10° NNE
Cosmos 2058 4.1 13:54:35 10° SW 13:57:58 24° W 14:00:41 13° NW
APEX 4.5 13:54:07 10° N 13:58:06 44° ENE 14:02:27 10° SE
Cosmos 1758 Rocket 3.9 13:55:59 10° SSW 14:00:17 46° W 14:04:29 10° NNW
Cosmos 2227 Rocket 3.3 13:56:25 13° WNW 14:00:50 31° WSW 14:05:54 10° S
CZ-2C R/B 2.9 13:55:24 10° SSE 14:01:05 83° ENE 14:06:44 10° NNW
Meteor 1-28 Rocket 3.5 14:05:00 10° S 14:08:31 46° WSW 14:11:59 10° NNW
SEDSat Delta rocket 3.8 14:06:02 11° WNW 14:09:43 35° N 14:14:04 10° ENE
Cosmos 1869 4.3 14:06:44 12° NW 14:09:58 30° WSW 14:13:33 10° SSW
Okean 1-7 Rocket 4.5 14:06:21 10° SSW 14:10:20 31° W 14:14:15 10° NNW
USA 306 2.5 14:07:16 10° SW 14:10:58 73° NW 14:14:50 10° NE
NOSS 3-4 (A) 3.5 14:06:20 10° SW 14:13:11 78° WNW 14:19:04 10° NNE
NOSS 3-4 (C) 3.5 14:06:18 10° SW 14:13:13 78° WNW 14:19:13 10° NNE
Cosmos 405 Rocket 2.5 14:10:39 10° N 14:14:17 88° W 14:17:56 10° S
BREEZE-M DEB (TANK) 4.4 14:10:22 10° WNW 14:15:15 71° SSW 14:31:32 10° SE
Cosmos 44 3.0 14:11:17 10° SSW 14:15:42 83° WNW 14:20:18 10° NNE
SL-16 R/B 2.6 14:11:18 10° S 14:17:30 72° WSW 14:23:39 10° NNW
Cosmos 1544 4.2 14:14:58 10° S 14:18:04 41° E 14:21:08 10° NNE
Meteor 2-16 Rocket 4.5 14:17:27 10° NNW 14:23:34 75° W 14:29:47 10° S
Cosmos 1484 Rocket 3.1 14:21:59 10° N 14:25:26 40° W 14:28:56 10° SSW
USA 281 3.4 14:19:34 10° N 14:25:58 55° WNW 14:32:27 10° SSW
Meteor 2-3 Rocket 4.2 14:22:26 10° SSW 14:27:48 42° W 14:33:04 10° NNW
